Regional Weather Roundup
Issued by NWS

Home | Current Version | Previous Version | Graphics & Text | Print | Product List | Glossary On
Versions: 1 2 3 4 5 6 7 8 9 10 11 12 13 14 15 16 17 18 19 20 21 22 23 24 25 26 27 28 29 30 31 32 33 34 35 36 37 38 39 40 41 42 43 44 45 46 47 48 49 50
000
ASUS45 KABQ 300510
RWRNM
NEW MEXICO REGIONAL WEATHER ROUNDUP
NATIONAL WEATHER SERVICE ALBUQUERQUE NM
1100 PM MDT WED JUL 29 2015

NOTE: "FAIR" MEANS FEW OR NO CLOUDS BELOW 12,000 FEET AGL WITH NO
       SIGNIFICANT WEATHER OR OBSTRUCTIONS TO VISION.

      THIS PRODUCT IS RELEASED AS TWO VERSIONS.  ONE VERSION NEAR
      THE TOP OF THE HOUR CONTAINING PRELIMINARY DATA FROM ALBUQUERQUE
      AND OTHER STATIONS.  A FINAL VERSION WITH ADDITIONAL DATA IS
      ISSUED ABOUT 10 MINUTES AFTER THE HOUR.

NMZ501-503-504-510>518-300600-
NORTHWEST PLATEAU/NORTHCENTRAL MOUNTAINS

CITY           SKY/WX    TMP DP  RH WIND       PRES   REMARKS
FARMINGTON     CLEAR     70  52  52 E3        30.30R
LOS ALAMOS     LGT RAIN  58  58 100 CALM      30.50S
SANTA FE       HVY RAIN  61  57  87 E7        30.45R FOG
TAOS           CLOUDY    59  46  63 SE8       30.49R
ANGEL FIRE     LGT RAIN  53  52  96 CALM      30.58S

$$
NMZ402-403-502-505>509-300600-
WESTCENTRAL MOUNTAINS/SOUTHWEST MOUNTAINS

CITY           SKY/WX    TMP DP  RH WIND       PRES   REMARKS
GALLUP         LGT RAIN  65  53  65 E6        30.37S
GRANTS         LGT RAIN  60  59  98 CALM      30.42S
SILVER CITY    RAIN      64  63  94 N14       30.35F

$$
NMZ407-409-411-412-300600-
SOUTHERN DESERTS

CITY           SKY/WX    TMP DP  RH WIND       PRES   REMARKS
LORDSBURG      FAIR      70  63  78 SE8       30.24R
DEMING         CLOUDY    67  64  90 N8        30.25R
LAS CRUCES     RAIN      66  64  92 NW9       30.26R
ALAMOGORDO     CLOUDY    75  57  53 N15       30.21R
T OR C         LGT RAIN  69  63  81 SW12      30.31R

$$
NMZ519>523-300600-
CENTRAL VALLEYS/CENTRAL HIGHLANDS

CITY           SKY/WX    TMP DP  RH WIND       PRES   REMARKS
ALBUQUERQUE    LGT RAIN  68  61  78 N7        30.35S
DOUBLE EAGLE   CLOUDY    63  59  85 NE14G20   30.39S
MORIARTY ARPT  RAIN      61  58  90 NW5       30.46R
CLINES CORNERS CLOUDY    59  57  93 E18G24    30.46S
BELEN          CLOUDY    67  61  81 NE6       30.33R
SOCORRO        MOCLDY    69  61  76 CALM      30.29R

$$
NMZ524>526-539-540-300600-
SOUTHCENTRAL MOUNTAINS

CITY           SKY/WX    TMP DP  RH WIND       PRES   REMARKS
RUIDOSO          N/A    N/A N/A N/A MISG        N/A

$$
NMZ527>531-300600-
NORTHEAST HIGHLANDS/NORTHEAST PLAINS

CITY           SKY/WX    TMP DP  RH WIND       PRES   REMARKS
LAS VEGAS      LGT RAIN  57  55  93 NW8       30.52R
RATON          CLOUDY    58  57  97 W5        30.42F
CLAYTON        CLOUDY    68  62  81 E6        30.35R

$$
NMZ532>537-300600-
EASTCENTRAL PLAINS

CITY           SKY/WX    TMP DP  RH WIND       PRES   REMARKS
TUCUMCARI      CLOUDY    75  60  59 N12       30.26R
CANNON AFB     CLOUDY    76  66  71 E9        30.26R
CLOVIS AIRPORT MOCLDY    73  64  73 NE8       30.27S

$$
NMZ028-029-538-300600-
SOUTHEAST PLAINS

CITY           SKY/WX    TMP DP  RH WIND       PRES   REMARKS
ROSWELL        MOCLDY    79  62  56 E8        30.16R
ARTESIA        MOCLDY    84  61  45 E10       30.14S
CARLSBAD       CLEAR     77  61  57 SW5       30.10R
HOBBS          PTCLDY    75  66  73 NE8       30.19R


$$


USA.gov is the U.S. government's official web portal to all federal, state and local government web resources and services.